Flag for Greece Weather past 2 weeks in Iráklion, Crete, Greece

Now
57 °F

Passing clouds.


Feels Like: 56 °F
Forecast: 54 / 76 °F
Wind: 7 mph from South

Location: Heraklion Airport


UV Index: 7 (High)

Visibility: N/A


Pressure: 29.80 "Hg

Humidity: 82%

Dew point: 52 °F

Location of IráklionLocation

Historic Weather in Iráklion

°F

Iráklion temperature yesterday

Maximum temperature yesterday: 77 °F (at 2:50 AM)
Minimum temperature yesterday: 63 °F (at 9:50 PM)
Average temperature yesterday: 68 °F

Past Weeks' High & Low Weather Summary

 TemperatureHumidityPressure
High93 °F (Apr 22, 12:50 PM)88% (Apr 10, 5:50 AM)30.09 "Hg (Apr 10, 5:50 AM)
Low50 °F (Apr 12, 6:50 AM)16% (Apr 23, 3:50 PM)29.71 "Hg (Apr 17, 1:50 PM)
Average64 °F64%29.91 "Hg
* Reported Apr 10 3:20 AM — Apr 25 3:50 AM, Iráklion, Weather by CustomWeather, © 2014

Note: Actual official high and low records may vary slightly from our data, if they occured in-between our weather recording intervals... More about our weather records

Advertising

Historic Weather Conditions — Data for Previous 24 hours

 ConditionsComfort  
Time TempWeatherWind HumidityBarometerVisibility
3:50 AM
Apr 25
57 °FPassing clouds.6 mph82%29.80 "HgN/A
3:20 AM59 °FPassing clouds.5 mph82%29.80 "HgN/A
2:50 AM59 °FPassing clouds.3 mph82%29.80 "HgN/A
2:20 AM59 °FPassing clouds.8 mph82%29.83 "HgN/A
1:50 AM59 °FPassing clouds.7 mph82%29.83 "HgN/A
1:20 AM59 °FPassing clouds.8 mph88%29.83 "HgN/A
12:50 AM59 °FPassing clouds.6 mph88%29.83 "HgN/A
12:20 AM59 °FPassing clouds.6 mph88%29.83 "HgN/A
11:20 PM
Apr 24
63 °FPassing clouds.3 mph83%29.83 "HgN/A
10:50 PM63 °FPassing clouds.1 mph83%29.83 "HgN/A
10:20 PM63 °FPassing clouds.1 mph83%29.83 "HgN/A
9:50 PM63 °FPassing clouds.1 mph83%29.83 "HgN/A
9:20 PM64 °FPassing clouds.2 mph83%29.83 "HgN/A
8:50 PM64 °FScattered clouds.3 mph83%29.83 "HgN/A
8:20 PM66 °FScattered clouds.3 mph78%29.83 "HgN/A
7:50 PM66 °FPartly sunny.2 mph78%29.83 "HgN/A
7:20 PM68 °FBroken clouds.3 mph73%29.83 "HgN/A
6:50 PM68 °FBroken clouds.3 mph73%29.83 "HgN/A
6:20 PM68 °FPartly sunny.3 mph73%29.83 "HgN/A
5:50 PM68 °FPartly sunny.3 mph73%29.83 "HgN/A
5:20 PM68 °FPartly sunny.5 mph73%29.83 "HgN/A
4:50 PM68 °FPartly sunny.3 mph73%29.83 "HgN/A
4:20 PM70 °FPartly sunny.3 mph69%29.83 "HgN/A
3:50 PM70 °FPartly sunny.3 mph69%29.83 "HgN/A
3:20 PM70 °FPartly sunny.3 mph69%29.86 "HgN/A
2:50 PM70 °FPartly sunny.5 mph69%29.86 "HgN/A
2:20 PM70 °FPartly sunny.8 mph69%29.86 "HgN/A
1:50 PM70 °FPartly sunny.10 mph69%29.86 "HgN/A
1:20 PM68 °FPartly sunny.12 mph69%29.86 "HgN/A
12:50 PM68 °FPartly sunny.13 mph69%29.86 "HgN/A
12:20 PM70 °FPartly sunny.14 mph64%29.86 "HgN/A
11:50 AM70 °FPartly sunny.12 mph64%29.86 "HgN/A
11:20 AM68 °FPartly sunny.7 mph78%29.86 "Hg5 mi
10:50 AM68 °FPartly sunny.3 mph78%29.86 "Hg5 mi
10:20 AM68 °FPartly sunny.3 mph78%29.86 "Hg5 mi
9:50 AM68 °FPartly sunny.5 mph78%29.86 "Hg4 mi
9:20 AM64 °FPartly sunny.6 mph88%29.83 "Hg4 mi
8:50 AM64 °FPartly sunny.9 mph88%29.83 "Hg4 mi
8:20 AM64 °FPartly sunny.8 mph88%29.83 "Hg4 mi
7:50 AM64 °FScattered clouds.8 mph88%29.83 "Hg4 mi
7:20 AM64 °FPassing clouds.6 mph88%29.83 "Hg4 mi
6:50 AM64 °FClear.14 mph83%29.80 "Hg10 mi
6:20 AM70 °FPassing clouds.14 mph57%29.77 "HgN/A
5:50 AM70 °FPassing clouds.9 mph57%29.77 "HgN/A
Weather by CustomWeather, © 2014

See weather overview